Back to catalog

STARLINK-4452

AliveCommunicationsSSO
NORAD 53658·PAYLOAD·🇺🇸 United States

Launched Aug 31, 2022 from Vandenberg Space Force Base

Loading…

Next Passes (next 24 hours)

TLE

FreshSource: CelesTrak SupGP

Epoch: Sep 14, 2026, 14:06 UTC

1 53658C 22105L   26257.58798611  .00063335  00000+0  19665-2 0  2579
2 53658  97.2838 134.3503 0001609  87.0171  43.0442 15.33400693    17

Track STARLINK-4452 in real time with AllMySat

Download on the App Store